Regional Weather Roundup
Issued by NWS Portland, ME

Current Version | Previous Version | Text Only | Print | Product List | Glossary Off
Versions: 1 2 3 4 5 6 7 8 9 10 11 12 13 14 15 16 17 18 19 20 21 22 23 24 25 26 27 28 29 30 31 32 33 34 35 36 37 38 39 40 41 42 43 44 45 46 47 48 49 50
000 ASUS41 KGYX 061910 RWRGYX WEATHER ROUNDUP FOR MAINE AND NEW HAMPSHIRE NATIONAL WEATHER SERVICE GRAY ME 300 PM EDT FRI MAY 06 2016 MEZ002-005-006-010-012-015-018-020-021-024-026-027-029-062000- MAINE CITY SKY/WX TMP DP RH WIND PRES REMARKS PORTLAND MOSUNNY 60 46 59 SE9 29.88R SANFORD MOSUNNY 57 43 58 SE8 29.88R BAR HARBOR CLOUDY 61 47 59 CALM 29.88R WISCASSET SUNNY 61 45 55 S9 29.88R ROCKLAND SUNNY 59 45 59 E9 29.87F FRYEBURG SUNNY 68 45 43 VRB5 29.84S LEWISTONAUBURN SUNNY 64 46 52 E8 29.86S AUGUSTA SUNNY 63 45 51 VRB5 29.86S WATERVILLE SUNNY 64 45 49 VRB5 29.84S BANGOR MOSUNNY 68 44 42 VRB3 29.86S GREENVILLE N/A 61 40 45 NW9 29.83S MILLINOCKET NOT AVBL HOULTON SUNNY 65 41 41 N8 29.84S PRESQUE ISLE SUNNY 65 37 35 NE10 29.85S FRENCHVILLE SUNNY 64 35 34 N10G17 29.85S CARIBOU SUNNY 67 36 31 VRB6 29.83S $$ NHZ002-005-008-009-011-012-014-062000- NEW HAMPSHIRE CITY SKY/WX TMP DP RH WIND PRES REMARKS PORTSMOUTH MOSUNNY 56 44 63 E13 29.87R ROCHESTER SUNNY 65 47 52 SE10G18 29.84S NASHUA CLOUDY 62 47 57 SE13 29.86R MANCHESTER PTSUNNY 65 47 52 SE10 29.83R CONCORD CLOUDY 69 47 45 SE8 29.82F LACONIA SUNNY 66 48 52 E14 29.82F PLYMOUTH FAIR 69 46 42 SE6 29.81R BERLIN SUNNY 70 42 36 VRB5 29.82F WHITEFIELD SUNNY 72 45 37 NE8 29.80F JAFFREY CLOUDY 61 48 62 E9 29.82S KEENE CLOUDY 64 46 52 E7 29.81S LEBANON PTSUNNY 70 46 42 N7 29.78F MT WASHINGTON PTSUNNY 46 41 81 VRB3 N/A $$ VTZ005-007-008-062000- VERMONT CITY SKY/WX TMP DP RH WIND PRES REMARKS ST JOHNSBURY N/A 72 42 34 MISG 29.78F MONTPELIER FAIR 68 44 42 MISG 29.84F BURLINGTON FAIR 66 39 37 N17G26 29.81F $$ MAZ007-012-024-CTZ003-RIZ002-NYZ038-NYZ072-062000- SOUTHERN NEW ENGLAND AND NY CITY SKY/WX TMP DP RH WIND PRES REMARKS BOSTON PTSUNNY 50 44 80 E16 29.90R WORCESTER CLOUDY 56 46 69 E10 29.83S NANTUCKET PTSUNNY 52 43 71 NE23 29.83F PROVIDENCE PTSUNNY 56 45 66 NE12G21 29.84R HARTFORD CLOUDY 62 48 60 E10 29.78R ALBANY CLOUDY 63 45 51 NW7 29.77F NEW YORK CITY CLOUDY 54 51 90 E15 29.73S $$ ANZ081-ANZ082-ANZ150-NHZ014-MEZ023>029-062000- COASTAL MARINE OBSERVATIONS STATION/POSITION TIME TEMP WIND PRES WAVE AIR SEA DIR/SP/G HT/PER (UTC) (F) (DEG/KT/KT) (MB) (FT/S) MOUNT DESERT ROC 1900 51 160/ 3/ 4 1012.5R MATINICUS ROCK 1800 49 70/ 9/ 10 1011.5S ISLE OF SHOALS 1800 47 90/ 11/ 12 1011.5R CASHES LEDGE BUO 1850 46 45 80/ 8/ 10 1012.0R 8/ 8 GEORGES BANK BUO 1750 46 45 1012.2 10/10 $$ .............KEY.............. WCI - WIND CHILL TC - TEMPERATURE IN CELSIUS VSB - VISIBILITY IN MILES HX - HEAT INDEX FAIR- INDICATES FEW OR NO CLOUDS BELOW 12,000 FT, WITH NO SIGNIFICANT WEATHER AND/OR OBSTRUCTIONS TO VISIBILITY.

USA.gov is the U.S. government's official web portal to all federal, state and local government web resources and services.